Theta_e
312 312 312 312 312 312 313 313 313 313 313 313 313 312 313 315 314 314 315 315 317 317 323 324 325 323 322 322 323 326 328 329 330 329 327 318 318 311 308 312 310 309 310 307 306
313 313 313 313 313 313 313 313 313 313 313 313 313 312 313 315 315 315 314 315 318 321 325 325 324 323 322 320 320 326 329 328 325 325 324 319 318 315 313 313 312 309 306 305 304
315 315 315 314 314 314 314 314 314 314 313 313 313 312 314 316 317 315 314 315 319 323 323 323 323 324 323 321 319 320 326 322 319 319 318 318 316 313 316 317 316 315 311 305 305
316 316 316 315 315 314 314 314 314 314 314 314 313 312 316 318 319 314 315 315 318 321 321 322 323 324 323 321 317 319 318 318 317 316 316 317 315 314 315 318 313 313 311 306 306
317 317 317 316 316 315 315 314 314 314 314 314 313 313 316 318 316 314 315 316 318 318 320 322 322 323 322 319 317 318 316 315 313 314 314 313 315 315 314 314 309 308 308 307 307
319 318 318 317 316 315 315 314 314 314 314 314 313 314 316 319 314 314 316 316 317 318 318 320 321 319 318 316 317 314 314 314 313 314 313 314 315 312 314 313 309 308 309 308 307
320 320 319 318 317 316 315 314 314 314 314 314 312 314 316 315 313 313 316 316 317 317 319 316 316 318 316 316 313 313 316 314 314 314 314 311 315 313 314 309 311 310 310 309 307
321 321 320 319 318 316 315 314 314 314 315 313 312 313 315 312 312 313 314 314 314 315 315 313 314 315 315 313 315 316 316 317 316 313 312 312 318 315 312 310 312 311 310 309 307
321 321 321 320 318 316 315 314 314 314 312 311 312 314 315 312 312 313 314 315 314 314 313 312 314 315 315 318 319 317 317 316 315 313 313 313 318 315 309 310 312 312 311 309 309
319 319 320 321 319 316 315 314 312 311 313 312 311 315 312 313 311 311 312 313 315 315 317 317 317 319 319 319 318 318 316 315 315 314 313 314 315 315 312 310 312 312 311 310 309
318 317 318 320 319 316 314 314 316 315 315 315 314 314 312 311 310 311 311 313 314 316 318 317 318 319 317 316 315 314 314 314 314 312 312 315 316 315 315 313 312 313 312 311 310
318 317 316 320 318 316 314 317 315 315 317 312 311 311 310 311 313 312 311 315 316 317 316 318 318 315 312 313 313 313 314 315 313 310 310 313 314 315 312 313 312 313 313 311 310
315 316 314 319 318 316 316 317 316 314 318 315 312 312 312 312 313 313 312 313 315 316 316 317 316 311 312 314 314 314 314 313 312 312 311 312 319 315 311 309 309 309 311 312 311
310 311 314 320 316 315 317 316 317 313 318 317 315 313 312 313 314 310 311 313 314 315 315 315 311 312 313 313 312 316 310 310 311 313 316 313 318 318 314 314 312 312 310 310 310
314 313 317 317 316 316 315 316 316 312 318 315 315 311 311 314 313 313 309 313 315 314 314 315 312 313 314 313 310 314 309 310 312 314 315 316 318 319 315 316 315 314 313 311 310
314 316 318 318 315 315 315 315 315 317 318 316 314 313 314 313 313 312 313 312 312 314 313 313 308 310 311 308 308 308 310 312 314 317 321 316 317 319 317 317 316 314 313 311 310
312 315 319 317 318 316 315 316 318 318 314 315 315 313 314 314 314 313 314 315 316 316 316 313 312 308 307 311 310 311 314 319 319 320 320 314 316 318 317 316 314 313 313 311 310
310 315 319 317 317 315 314 317 318 315 317 313 313 313 315 314 314 314 315 316 312 313 315 317 317 311 306 309 312 312 313 317 319 317 317 311 317 319 314 312 311 311 312 310 310
311 314 317 318 318 314 318 318 317 315 316 315 313 315 315 313 314 314 315 316 315 313 316 317 316 306 304 305 307 312 315 311 315 311 315 316 316 315 313 313 312 313 311 313 313
315 317 319 319 318 314 318 317 316 313 313 314 318 316 317 316 316 316 316 315 315 312 311 315 317 308 305 305 306 309 309 316 315 322 319 316 315 317 316 315 313 313 313 314 313
317 320 315 319 313 318 319 318 315 313 314 315 316 315 316 316 316 316 317 313 313 311 311 313 315 312 308 310 313 310 312 311 313 315 319 318 319 316 315 315 314 315 314 314 313
318 319 313 311 318 317 319 316 312 316 314 315 315 315 316 316 317 317 317 315 312 312 314 313 316 317 314 306 305 307 311 313 317 319 314 316 318 314 313 313 313 314 314 313 312
318 317 311 311 318 317 314 315 315 316 316 316 316 316 314 316 318 316 314 311 310 312 314 312 316 318 315 310 307 310 308 310 311 313 317 319 321 311 312 313 312 312 313 313 311
317 321 316 314 313 316 316 316 316 314 315 315 316 315 315 316 314 317 315 312 309 310 310 311 315 317 319 317 315 313 310 308 312 317 319 318 318 317 317 317 316 316 315 314 313
316 319 319 321 317 316 315 315 316 316 314 314 315 317 318 319 316 317 316 313 310 314 310 313 316 314 313 312 312 314 314 311 311 315 317 318 317 318 318 318 316 314 313 312 312
319 317 314 319 318 317 315 316 316 315 316 317 317 317 316 319 319 318 317 317 318 312 312 310 316 312 315 311 311 313 314 314 312 312 313 314 314 315 315 314 313 314 314 313 312
313 311 317 316 318 320 319 318 317 316 315 315 316 317 316 317 316 314 315 316 316 316 314 313 315 315 318 312 313 316 316 314 314 312 313 315 317 317 317 316 315 314 314 313 313
Wind_Speed
5 4 4 4 3 3 3 3 2 2 2 3 4 4 3 5 5 3 7 5 3 2 2 1 3 3 5 4 5 2 2 3 4 5 4 8 7 4 1 4 4 5 1 4 21
5 5 4 4 3 2 2 3 2 2 2 3 4 4 2 8 5 10 6 6 4 3 1 1 4 4 3 3 3 2 1 2 2 2 2 7 6 8 5 6 7 7 6 8 21
5 5 5 4 4 3 3 3 3 2 2 2 3 3 2 6 3 5 9 4 3 3 2 2 2 3 5 3 5 3 2 3 3 1 0 5 5 4 6 7 9 8 13 16 21
5 5 5 6 6 5 4 4 3 2 2 2 3 3 4 2 1 4 5 2 2 1 1 1 2 2 2 3 3 1 3 2 2 2 2 3 3 4 10 4 3 5 10 19 21
4 5 6 6 6 7 6 6 4 2 2 2 2 1 3 3 4 6 2 1 2 2 3 1 2 1 2 2 1 3 3 1 2 2 0 2 5 8 10 9 2 6 11 16 19
4 5 6 7 7 7 7 6 4 3 2 1 1 2 2 2 1 6 4 2 2 1 3 2 3 3 6 4 3 3 2 2 1 2 2 5 4 3 2 8 9 8 11 14 18
5 5 6 7 8 8 8 5 3 3 2 1 1 3 1 4 2 4 5 6 3 1 3 3 4 1 3 4 3 3 2 3 4 2 2 4 9 11 8 8 11 12 11 13 17
6 6 7 8 8 9 7 4 2 3 2 2 2 2 3 3 3 4 4 6 8 10 10 7 9 7 3 5 3 2 3 3 3 3 2 3 5 4 6 9 11 12 12 13 17
8 8 8 8 8 9 5 0 3 3 3 3 1 2 5 3 3 4 3 4 5 6 7 5 3 3 4 2 3 1 4 4 2 4 1 6 9 3 6 9 11 12 13 13 14
11 10 9 7 8 7 1 5 5 5 4 4 2 3 4 4 2 3 3 4 2 4 3 1 2 2 2 3 2 4 4 4 6 1 6 11 21 16 11 12 14 13 13 14 16
13 12 10 7 7 5 6 4 4 3 1 2 2 2 4 3 3 2 1 3 2 2 2 2 4 1 3 3 2 2 5 8 6 1 5 10 19 19 16 15 16 15 15 17 17
14 13 11 7 6 2 6 3 1 2 4 1 2 2 2 2 3 2 1 4 3 2 2 4 1 3 2 1 2 3 6 6 5 1 6 12 22 14 4 11 16 17 17 16 13
16 14 11 7 5 3 3 4 4 3 1 3 0 2 2 3 1 3 2 2 1 3 0 3 4 2 2 1 4 3 4 4 5 10 4 15 6 1 2 4 7 12 15 13 14
11 12 10 5 3 6 4 6 6 3 3 6 4 3 2 2 2 2 3 1 2 1 2 1 2 1 2 2 2 5 1 3 7 8 4 7 5 2 5 4 2 4 10 12 14
8 9 11 10 2 5 5 7 6 2 4 5 4 2 2 2 3 2 3 1 2 3 3 3 2 2 3 1 1 3 1 3 4 5 5 2 4 2 2 6 7 7 1 7 12
7 7 10 8 5 6 8 10 4 4 4 5 3 4 6 2 2 1 1 4 2 2 1 2 1 1 2 1 1 1 4 2 2 2 3 3 4 1 2 3 2 3 1 1 5
6 8 11 10 4 9 11 5 4 5 3 6 4 5 5 5 4 3 3 6 3 4 5 2 2 2 1 3 2 2 6 2 2 2 3 2 5 7 2 3 3 3 1 1 2
6 10 10 9 10 11 6 4 7 2 5 3 4 6 6 7 3 3 2 5 5 2 1 2 3 0 3 3 4 3 4 3 4 4 6 3 5 1 1 5 9 8 6 5 5
6 7 5 9 11 11 6 7 3 4 7 11 6 5 6 4 2 5 6 3 2 10 4 3 2 2 5 2 4 2 1 2 2 1 4 3 5 6 2 3 3 8 8 8 7
6 6 5 9 11 7 6 4 3 3 6 5 7 6 10 10 8 8 8 4 4 7 1 2 2 1 2 2 4 2 2 1 0 4 5 1 6 7 3 4 4 8 10 8 6
6 5 4 11 9 6 9 6 4 4 4 7 6 6 4 6 9 6 4 3 4 6 1 5 2 3 2 5 3 4 2 1 1 2 3 5 4 2 6 4 4 9 10 8 8
7 4 4 13 8 3 8 5 3 5 4 3 2 3 8 9 9 5 5 2 5 10 7 5 1 3 1 3 3 2 2 4 2 3 1 2 8 3 6 6 6 9 9 9 10
6 3 2 3 9 6 2 3 3 6 6 7 7 3 2 7 5 6 4 2 5 5 4 7 3 2 3 3 1 5 5 4 2 1 7 4 6 3 3 6 9 13 13 12 12
5 5 3 5 1 8 7 6 7 4 3 4 4 4 5 5 2 5 5 2 3 4 2 5 3 6 6 2 3 5 7 11 10 5 9 15 26 25 21 21 20 19 18 18 16
4 4 3 8 10 9 9 5 13 7 4 6 4 8 8 6 6 6 4 4 2 5 3 4 5 5 7 4 4 11 10 14 15 19 12 24 20 25 25 20 19 16 16 16 16
5 4 3 3 9 18 9 10 11 9 9 6 7 13 11 9 8 8 9 6 5 5 6 2 2 1 4 5 9 14 15 18 18 19 22 24 27 27 24 20 14 16 16 17 17
5 1 3 8 8 14 14 14 14 9 9 2 13 7 11 13 4 4 3 2 5 9 10 7 6 4 4 2 2 10 17 17 9 10 12 13 15 16 19 15 16 17 15 18 17
Wind_Direction
50 51 44 38 32 21 10 3 3 3 358 5 13 21 52 123 91 68 49 348 345 13 109 119 15 58 54 68 31 302 203 155 154 176 124 153 183 153 126 157 191 179 291 92 157
35 36 38 34 25 5 353 342 339 333 338 347 1 11 96 138 110 63 8 9 21 116 83 31 35 38 70 39 26 345 250 100 83 115 132 174 208 168 193 192 209 195 155 140 160
29 24 23 17 6 344 330 325 317 312 321 337 353 359 156 163 210 37 355 12 48 93 79 72 60 36 53 32 16 16 46 121 104 44 279 172 200 187 229 232 238 217 180 167 175
17 12 9 3 352 338 324 316 303 292 300 329 350 1 146 180 280 351 351 29 72 73 5 62 12 41 46 53 34 138 71 20 89 92 149 186 129 225 229 258 76 202 164 172 183
4 3 357 352 349 343 331 318 298 278 282 320 346 103 145 146 71 355 10 82 100 105 63 63 11 82 73 68 59 53 104 56 64 153 23 166 233 261 249 241 180 140 165 180 190
347 345 345 343 341 339 331 317 287 253 251 294 342 139 231 160 86 20 43 68 99 99 74 20 71 81 92 55 9 57 107 124 164 166 202 254 248 260 200 199 194 187 192 192 195
326 326 331 334 335 337 331 315 273 233 227 243 102 135 115 96 99 53 73 70 70 56 95 60 107 331 129 123 129 135 233 206 203 202 250 287 246 236 221 182 199 204 200 196 199
299 308 316 327 333 333 331 309 224 204 201 165 147 160 91 136 121 68 86 76 80 83 97 94 92 90 15 118 151 248 237 287 135 193 114 255 285 180 179 198 210 207 204 200 201
287 299 308 319 328 332 332 214 155 157 156 150 140 247 132 143 154 85 106 114 102 82 85 98 73 80 171 245 188 211 328 326 293 205 259 231 284 157 180 209 226 217 214 207 206
277 290 294 309 323 331 342 137 129 119 128 111 126 195 164 166 137 125 96 118 131 137 153 169 142 183 175 275 11 338 324 312 295 98 239 258 266 266 216 218 222 219 218 215 214
271 279 280 293 315 328 148 136 177 161 131 336 68 61 126 124 113 95 99 151 148 192 223 45 243 36 51 33 35 318 297 300 306 6 290 266 276 279 264 223 235 228 221 219 220
271 272 266 272 300 248 178 238 56 63 144 46 119 95 107 168 144 114 357 213 203 185 190 208 33 92 101 126 282 276 303 331 285 244 288 302 293 299 295 245 236 232 228 226 219
267 263 252 252 282 193 186 159 151 142 172 143 121 137 124 193 102 108 319 139 135 168 331 310 73 120 230 242 283 277 298 332 305 313 253 305 258 126 145 244 230 238 245 233 223
260 242 223 220 193 168 163 167 161 176 237 159 183 128 125 155 126 353 13 323 136 181 151 43 80 219 252 281 291 297 70 296 307 327 321 359 305 66 1 18 231 208 220 228 226
243 225 198 188 168 181 160 159 157 228 251 124 141 69 101 203 106 79 7 221 194 133 238 85 183 204 252 351 244 350 334 309 300 293 291 138 265 94 22 64 53 60 157 224 226
219 206 180 179 180 170 155 149 167 209 240 159 142 164 162 135 113 112 132 76 80 139 71 104 95 322 20 93 323 54 265 254 233 262 236 56 334 197 100 69 55 75 16 218 220
195 179 178 170 165 166 153 173 187 238 138 167 175 175 187 160 158 196 176 183 211 192 203 164 157 97 338 251 171 259 284 298 231 235 358 73 283 282 217 257 271 310 280 250 242
196 178 183 177 164 157 163 186 222 105 187 115 135 142 185 162 175 174 198 227 203 210 159 246 174 32 22 21 349 11 335 349 314 323 316 136 239 95 182 274 264 241 253 261 232
180 172 173 185 168 163 196 209 256 186 147 155 142 170 181 169 208 191 220 243 217 195 227 182 136 100 49 16 326 63 323 14 303 185 272 297 268 260 289 219 215 203 216 218 207
161 167 163 177 168 167 201 241 234 170 131 172 185 205 184 178 187 198 186 168 194 196 320 141 188 27 111 179 75 335 90 256 162 321 304 273 283 278 244 234 192 210 218 211 215
161 175 165 162 150 189 208 216 215 211 171 176 180 160 199 179 206 202 186 152 194 153 184 165 241 118 225 202 171 151 178 134 312 300 299 310 279 237 260 247 262 218 216 227 237
165 181 167 161 182 208 207 197 161 167 183 204 166 134 181 170 186 216 220 264 162 157 175 176 160 199 60 67 349 311 222 219 240 188 181 270 271 192 259 278 275 259 258 264 272
155 110 97 190 201 204 174 202 224 162 188 186 201 221 167 171 195 204 186 54 148 172 157 177 199 194 186 157 169 233 194 204 122 133 226 257 260 146 231 269 261 263 273 272 274
163 145 141 207 326 218 182 199 206 215 185 183 158 148 157 183 177 178 201 112 165 172 102 161 185 250 270 34 124 189 199 208 215 219 264 238 277 280 283 285 286 280 275 282 288
208 178 167 180 210 193 202 192 194 188 213 200 185 210 181 178 173 197 162 146 146 161 129 201 230 224 260 253 249 270 243 206 208 233 249 270 276 278 289 299 302 298 291 283 276
177 172 154 148 163 188 178 198 198 191 175 196 218 197 197 207 197 184 168 194 189 163 180 172 201 146 261 237 241 270 256 250 233 243 254 264 273 275 282 290 295 297 295 287 279
167 307 251 155 161 179 208 196 194 175 207 229 207 176 207 225 200 53 136 157 164 166 178 175 164 165 260 129 215 269 258 230 222 216 224 237 253 288 295 294 299 303 293 285 284